This is the latest recevied weather packets stored in our database for station/object WX0ABE-13. If no packets are shown the sender has not sent any weather packets the latest 10 day(s).
| Time | Temp. | Humidity | Pressure | Rain* | Wind** | Luminosity | Snow |
|---|---|---|---|---|---|---|---|
| 1787699845 | 28.89° C | 44% | 1021.4 hPa | 0 mm | - | 39 W/m² | - |
| 1787699540 | 28.89° C | 43% | 1021.4 hPa | 0 mm | - | 56 W/m² | - |
| 1787699236 | 29.44° C | 43% | 1021.4 hPa | 0 mm | - | 74 W/m² | - |
| 1787698933 | 29.44° C | 41% | 1021.3 hPa | 0 mm | - | 94 W/m² | - |
| 1787698631 | 30° C | 41% | 1021.3 hPa | 0 mm | - | 109 W/m² | - |
| 1787698328 | 30.56° C | 40% | 1021.3 hPa | 0 mm | - | 104 W/m² | - |
| 1787698024 | 31.11° C | 38% | 1021.3 hPa | 0 mm | - | 101 W/m² | - |
| 1787697723 | 31.67° C | 38% | 1021.2 hPa | 0 mm | - | 126 W/m² | - |
| 1787697419 | 31.67° C | 38% | 1021.2 hPa | 0 mm | - | 353 W/m² | - |
| 1787697115 | 31.67° C | 37% | 1021.3 hPa | 0 mm | - | 302 W/m² | - |
| 1787696815 | 31.67° C | 37% | 1021.2 hPa | 0 mm | - | 371 W/m² | - |
| 1787696511 | 31.67° C | 37% | 1021.3 hPa | 0 mm | - | 377 W/m² | - |
| 1787696206 | 31.67° C | 39% | 1021.2 hPa | 0 mm | - | 400 W/m² | - |
| 1787695905 | 31.67° C | 36% | 1021.3 hPa | 0 mm | - | 415 W/m² | - |
| 1787695600 | 31.67° C | 38% | 1021.2 hPa | 0 mm | - | 423 W/m² | - |
| 1787695297 | 31.67° C | 38% | 1021.3 hPa | 0 mm | - | 450 W/m² | - |
| 1787694996 | 31.67° C | 39% | 1021.2 hPa | 0 mm | - | 483 W/m² | - |
| 1787694696 | 31.11° C | 39% | 1021.4 hPa | 0 mm | - | 509 W/m² | - |
| 1787694391 | 30.56° C | 41% | 1021.9 hPa | 0 mm | - | 355 W/m² | - |
| 1787694086 | 30.56° C | 40% | 1021.8 hPa | 0 mm | - | 179 W/m² | - |
| 1787693782 | 31.11° C | 39% | 1021.9 hPa | 0 mm | - | 175 W/m² | - |
| 1787693478 | 31.11° C | 39% | 1021.8 hPa | 0 mm | - | 349 W/m² | - |
| 1787693174 | 31.11° C | 41% | 1022 hPa | 0 mm | - | 298 W/m² | - |
| 1787692870 | 31.11° C | 41% | 1022.1 hPa | 0 mm | - | 271 W/m² | - |
| 1787692565 | 31.11° C | 39% | 1022.2 hPa | 0 mm | - | 245 W/m² | - |
* Rain latest hour (hover to see other rain measurements)
** Current wind speed in m/s (hover to see current wind gust speed)